Satellite: MET-2/21 Catalog number: 22782 Epoch time: 12034.80106804 Element set: 328 Inclination: 082.5501 deg RA of node: 139.1377 deg Eccentricity: 0.0023032 Arg of perigee: 165.9138 deg Mean anomaly: 194.2679 deg Mean motion: 13.83676939 rev/day Decay rate: -6.0e-08 rev/day^2 Epoch rev: 93058 Checksum: 308
Satellite: OKEAN-4 Catalog number: 23317 Epoch time: 12034.89046284 Element set: 794 Inclination: 082.5419 deg RA of node: 156.7235 deg Eccentricity: 0.0023194 Arg of perigee: 075.8875 deg Mean anomaly: 284.4916 deg Mean motion: 14.83566645 rev/day Decay rate: 8.37e-06 rev/day^2 Epoch rev: 93489 Checksum: 351
Satellite: NOAA-14 Catalog number: 23455 Epoch time: 12034.52003107 Element set: 774 Inclination: 098.8349 deg RA of node: 119.6833 deg Eccentricity: 0.0009411 Arg of perigee: 348.1844 deg Mean anomaly: 011.9107 deg Mean motion: 14.13874470 rev/day Decay rate: 3.7e-07 rev/day^2 Epoch rev: 88176 Checksum: 298
Satellite: NOAA-15 Catalog number: 25338 Epoch time: 12034.45914932 Element set: 126 Inclination: 098.6790 deg RA of node: 022.7219 deg Eccentricity: 0.0011143 Arg of perigee: 136.8541 deg Mean anomaly: 223.3515 deg Mean motion: 14.25025550 rev/day Decay rate: -2.8e-07 rev/day^2 Epoch rev: 71366 Checksum: 278
Satellite: RESURS Catalog number: 25394 Epoch time: 12033.95765585 Element set: 0026 Inclination: 098.3096 deg RA of node: 029.3819 deg Eccentricity: 0.0000743 Arg of perigee: 316.0481 deg Mean anomaly: 044.0641 deg Mean motion: 14.24271778 rev/day Decay rate: 3.4e-07 rev/day^2 Epoch rev: 70515 Checksum: 291
Satellite: FENGYUN1 Catalog number: 25730 Epoch time: 12033.90385230 Element set: 0543 Inclination: 098.8362 deg RA of node: 355.3329 deg Eccentricity: 0.0021391 Arg of perigee: 030.5000 deg Mean anomaly: 329.7410 deg Mean motion: 14.09204435 rev/day Decay rate: 1.296e-05 rev/day^2 Epoch rev: 65555 Checksum: 269
Satellite: OKEAN-0 Catalog number: 25860 Epoch time: 12033.91386708 Element set: 0553 Inclination: 097.9173 deg RA of node: 359.4790 deg Eccentricity: 0.0001180 Arg of perigee: 033.8735 deg Mean anomaly: 326.2549 deg Mean motion: 14.74074039 rev/day Decay rate: 4.54e-06 rev/day^2 Epoch rev: 67464 Checksum: 317
Satellite: NOAA-16 Catalog number: 26536 Epoch time: 12034.47095006 Element set: 610 Inclination: 099.1141 deg RA of node: 074.4014 deg Eccentricity: 0.0011388 Arg of perigee: 103.0432 deg Mean anomaly: 257.2013 deg Mean motion: 14.12700301 rev/day Decay rate: -1.52e-06 rev/day^2 Epoch rev: 58601 Checksum: 234
Satellite: NOAA-17 Catalog number: 27453 Epoch time: 12034.29390664 Element set: 583 Inclination: 098.3530 deg RA of node: 068.0535 deg Eccentricity: 0.0011577 Arg of perigee: 187.8989 deg Mean anomaly: 172.2010 deg Mean motion: 14.24388661 rev/day Decay rate: -5.5e-07 rev/day^2 Epoch rev: 49955 Checksum: 330
Satellite: NOAA-18 Catalog number: 28654 Epoch time: 12034.32419292 Element set: 60 Inclination: 099.0288 deg RA of node: 351.4167 deg Eccentricity: 0.0014205 Arg of perigee: 171.1731 deg Mean anomaly: 188.9700 deg Mean motion: 14.11598812 rev/day Decay rate: -7.6e-07 rev/day^2 Epoch rev: 34553 Checksum: 296
Satellite: NOAA-19 Catalog number: 33591 Epoch time: 12034.30188475 Element set: 248 Inclination: 098.8520 deg RA of node: 335.8525 deg Eccentricity: 0.0014757 Arg of perigee: 044.7515 deg Mean anomaly: 315.4846 deg Mean motion: 14.11290002 rev/day Decay rate: 3.11e-06 rev/day^2 Epoch rev: 15398 Checksum: 296
/EX SB KEPS @ AMSAT $ORB12034.M Orbital Elements 12034.MISC
HR AMSAT ORBITAL ELEMENTS FOR MANNED AND MISCELLANEOUS SATELLITES FROM WA5QGD FORT WORTH,TX February 3, 2012 Send SUBSCRIBE KEPS/UNSUBSCRIBE KEPS to [email protected] only BID: ORB12034.M TO ALL RADIO AMATEURS BT
Satellite: HUBBLE Catalog number: 20580 Epoch time: 12033.80363283 Element set: 936 Inclination: 028.4724 deg RA of node: 309.2623 deg Eccentricity: 0.0003558 Arg of perigee: 058.6018 deg Mean anomaly: 301.4443 deg Mean motion: 15.02156561 rev/day Decay rate: 1.564e-05 rev/day^2 Epoch rev: 99435 Checksum: 281
Satellite: ISS Catalog number: 25544 Epoch time: 12034.86863426 Element set: 942 Inclination: 051.6423 deg RA of node: 075.8121 deg Eccentricity: 0.0020339 Arg of perigee: 002.5479 deg Mean anomaly: 345.5829 deg Mean motion: 15.58658818 rev/day Decay rate: -1.965e-05 rev/day^2 Epoch rev: 75706 Checksum: 323
Satellite: CO-58 Catalog number: 28895 Epoch time: 12033.64256716 Element set: 0090 Inclination: 097.9355 deg RA of node: 265.7268 deg Eccentricity: 0.0016932 Arg of perigee: 214.5420 deg Mean anomaly: 145.4665 deg Mean motion: 14.60468303 rev/day Decay rate: 3.61e-06 rev/day^2 Epoch rev: 33387 Checksum: 323
Satellite: FALCON Catalog number: 30776 Epoch time: 12033.97544816 Element set: 0286 Inclination: 035.4337 deg RA of node: 022.0578 deg Eccentricity: 0.0003418 Arg of perigee: 277.9002 deg Mean anomaly: 082.1323 deg Mean motion: 15.06535208 rev/day Decay rate: 3.517e-05 rev/day^2 Epoch rev: 26984 Checksum: 291
Satellite: MAST Catalog number: 31126 Epoch time: 12033.93787976 Element set: 0380 Inclination: 097.8810 deg RA of node: 052.9291 deg Eccentricity: 0.0094274 Arg of perigee: 171.6016 deg Mean anomaly: 188.6795 deg Mean motion: 14.54023074 rev/day Decay rate: 3.20e-06 rev/day^2 Epoch rev: 25461 Checksum: 304
Satellite: CAPE1 Catalog number: 31130 Epoch time: 12033.92706829 Element set: 0388 Inclination: 097.8890 deg RA of node: 049.3986 deg Eccentricity: 0.0101811 Arg of perigee: 183.8149 deg Mean anomaly: 176.2288 deg Mean motion: 14.52755723 rev/day Decay rate: 3.89e-06 rev/day^2 Epoch rev: 25413 Checksum: 325
Satellite: COMPASS Catalog number: 32787 Epoch time: 12033.65189263 Element set: 0214 Inclination: 097.8195 deg RA of node: 097.9271 deg Eccentricity: 0.0016162 Arg of perigee: 141.2021 deg Mean anomaly: 219.0352 deg Mean motion: 14.83468310 rev/day Decay rate: 1.184e-05 rev/day^2 Epoch rev: 20371 Checksum: 279
Satellite: AAUSAT2 Catalog number: 32788 Epoch time: 12033.91859911 Element set: 0207 Inclination: 097.8205 deg RA of node: 098.5001 deg Eccentricity: 0.0016219 Arg of perigee: 140.2606 deg Mean anomaly: 219.9785 deg Mean motion: 14.83744502 rev/day Decay rate: 1.254e-05 rev/day^2 Epoch rev: 20377 Checksum: 301
Satellite: DO-64 Catalog number: 32789 Epoch time: 12033.88248916 Element set: 0221 Inclination: 097.8302 deg RA of node: 100.0206 deg Eccentricity: 0.0015902 Arg of perigee: 138.7683 deg Mean anomaly: 221.4734 deg Mean motion: 14.84872170 rev/day Decay rate: 3.025e-05 rev/day^2 Epoch rev: 20379 Checksum: 295
Satellite: CO-66 Catalog number: 32791 Epoch time: 12034.80716732 Element set: 207 Inclination: 097.8205 deg RA of node: 098.8971 deg Eccentricity: 0.0016484 Arg of perigee: 136.4443 deg Mean anomaly: 223.8070 deg Mean motion: 14.82984967 rev/day Decay rate: 1.355e-05 rev/day^2 Epoch rev: 20382 Checksum: 326
Satellite: RS-30 Catalog number: 32953 Epoch time: 12034.87439243 Element set: 489 Inclination: 082.5017 deg RA of node: 018.6546 deg Eccentricity: 0.0017457 Arg of perigee: 240.2754 deg Mean anomaly: 119.6590 deg Mean motion: 12.43020594 rev/day Decay rate: 1.0e-07 rev/day^2 Epoch rev: 16787 Checksum: 299
Satellite: TACSAT-3 Catalog number: 35001 Epoch time: 12033.80813342 Element set: 0860 Inclination: 040.4468 deg RA of node: 195.8471 deg Eccentricity: 0.0005692 Arg of perigee: 013.5828 deg Mean anomaly: 346.5199 deg Mean motion: 15.71534632 rev/day Decay rate: 7.6743e-04 rev/day^2 Epoch rev: 15303 Checksum: 295
Satellite: PHARMSAT Catalog number: 35002 Epoch time: 12034.58323606 Element set: 785 Inclination: 040.4653 deg RA of node: 194.3474 deg Eccentricity: 0.0005185 Arg of perigee: 160.7121 deg Mean anomaly: 199.3899 deg Mean motion: 15.64020865 rev/day Decay rate: 4.1458e-04 rev/day^2 Epoch rev: 15312 Checksum: 290
Satellite: METEOR-M Catalog number: 35865 Epoch time: 12034.74211401 Element set: 122 Inclination: 098.6743 deg RA of node: 091.4739 deg Eccentricity: 0.0003296 Arg of perigee: 081.9944 deg Mean anomaly: 278.1603 deg Mean motion: 14.21854911 rev/day Decay rate: -1.3e-07 rev/day^2 Epoch rev: 12349 Checksum: 285
Satellite: RS-38 Catalog number: 35869 Epoch time: 12034.71217152 Element set: 118 Inclination: 098.6708 deg RA of node: 091.4603 deg Eccentricity: 0.0005429 Arg of perigee: 082.7551 deg Mean anomaly: 277.4235 deg Mean motion: 14.22052782 rev/day Decay rate: 1.2e-07 rev/day^2 Epoch rev: 12350 Checksum: 285
Satellite: ARISSAT1 Catalog number: 37772 Epoch time: 12004.04884568 Element set: 479 Inclination: 051.6129 deg RA of node: 213.1240 deg Eccentricity: 0.0007478 Arg of perigee: 255.9283 deg Mean anomaly: 104.1611 deg Mean motion: 16.41716225 rev/day Decay rate: 1.3494171e-01 rev/day^2 Epoch rev: 2407 Checksum: 290
Satellite: JUGNU Catalog number: 37839 Epoch time: 12033.49104480 Element set: 0080 Inclination: 019.9606 deg RA of node: 100.2643 deg Eccentricity: 0.0018614 Arg of perigee: 166.8909 deg Mean anomaly: 193.1923 deg Mean motion: 14.12021540 rev/day Decay rate: 6.20e-06 rev/day^2 Epoch rev: 01604 Checksum: 259
Satellite: SRMSAT Catalog number: 37841 Epoch time: 12033.50275586 Element set: 0081 Inclination: 019.9729 deg RA of node: 102.4062 deg Eccentricity: 0.0012250 Arg of perigee: 143.8899 deg Mean anomaly: 216.2334 deg Mean motion: 14.10112631 rev/day Decay rate: 2.64e-06 rev/day^2 Epoch rev: 01602 Checksum: 254
Satellite: RAX-2 Catalog number: 37853 Epoch time: 12034.86954635 Element set: 87 Inclination: 101.7118 deg RA of node: 014.0423 deg Eccentricity: 0.0251507 Arg of perigee: 013.4055 deg Mean anomaly: 347.3665 deg Mean motion: 14.78700145 rev/day Decay rate: 5.922e-05 rev/day^2 Epoch rev: 1453 Checksum: 281
